Location: Wangen+im+Allg�u
(47.7098°N, 9.8383°E)
Time: 17:48:53
(UTC+02:00)

ELECTRON R/B - Visible Passes

Search period start: 20 May 2018 00:00
Search period end: 30 May 2018 00:00
Orbit: 285 x 480 km, 82.9° (Epoch: 19 May)

Date Brightness Start Highest point End Pass type
(mag) Time Alt. Az. Time Alt. Az. Time Alt. Az.
20 May 4.9 22:26:42 10° NNW 22:29:07 52° W 22:30:40 18° SSW visible
21 May 7.5 23:04:48 10° WNW 23:05:23 11° W 23:05:58 10° WSW visible
22 May 4.6 22:06:47 10° NNW 22:09:12 64° W 22:11:32 11° S visible
23 May 7.4 22:44:16 10° WNW 22:45:21 12° W 22:46:27 10° WSW visible
24 May 4.4 21:46:34 10° N 21:48:59 78° W 21:51:27 10° S visible
25 May 7.3 22:23:36 10° NW 22:25:02 14° W 22:26:28 10° SW visible
27 May 7.3 22:02:42 10° NW 22:04:25 17° W 22:06:08 10° SW visible
